[[{"header":{"parameterUnit":"m.s-1","parameterCategory":1,"la1":30.2991,"la2":30.254,"lo1":-89.0895,"lo2":-89.0444,"dy":0.0017,"dx":0.0017,"nx":28,"ny":28,"refTime":"2024-12-05T03:00:00:Z","depth":0,"parameterNumber":2,"parameterNumberName":"U-component_of_WINDS"},"data":[0,0,0,0,0,0,0,0,0,0,0,0,0,0,0,0,0,0,0,0,0,0,0,0,0,0,0,0,0,0,0,0,0,0,0,0,0,0,0,0,0,0,0,0,0,0,0,0,0,0,0,0,0,0,0,0,0,0,-1.8637,-1.8637,0,-1.8671,-1.8671,-1.8672,-1.8621,-1.862,-1.8618,-1.8616,-1.8652,-1.8655,-1.8657,0,0,0,0,0,0,0,0,0,0,0,0,0,-1.8527,-1.853,-1.8637,-1.8637,-1.8638,-1.8671,-1.8671,-1.8672,-1.8622,-1.8619,-1.8617,-1.8615,-1.8651,-1.8654,-1.8657,0,0,0,0,0,0,0,0,0,0,0,0,0,-1.857,-1.853,-1.8637,-1.8616,-1.8615,-1.8671,-1.8671,-1.8672,-1.8622,-1.8619,-1.8617,-1.8614,-1.865,-1.8654,-1.8658,-1.8735,0,0,-1.867,-1.8671,0,0,0,0,0,0,0,0,-1.8567,-1.8574,-1.8619,-1.8618,-1.8616,-1.8639,-1.8646,-1.8693,-1.8623,-1.8619,-1.8616,-1.8613,-1.865,-1.8654,-1.8666,-1.8737,-1.8738,-1.867,-1.8672,-1.8674,-1.8675,0,0,0,0,0,0,0,-1.8564,-1.8572,-1.865,-1.862,-1.8618,-1.8606,-1.8609,-1.8655,-1.8649,-1.862,-1.8616,-1.8621,-1.8649,-1.8662,-1.8666,-1.8739,-1.867,-1.8673,-1.8676,-1.8677,-1.8874,-1.8876,0,0,0,0,0,0,-1.8564,-1.857,-1.8649,-1.8651,-1.8585,-1.861,-1.8613,-1.8635,-1.8649,-1.8648,-1.8623,-1.8618,-1.8657,-1.8662,-1.8668,-1.8759,-1.8674,-1.8678,-1.868,-1.8871,-1.8874,-1.8877,0,0,0,0,0,0,-1.8562,-1.8571,-1.8648,-1.861,-1.8618,-1.8614,-1.8639,-1.8637,-1.865,-1.8651,-1.865,-1.8638,-1.8655,-1.8662,-1.8718,-1.8759,-1.868,-1.8683,-1.8867,-1.8872,-1.8876,-1.8942,0,0,0,0,0,0,-1.8559,-1.8571,-1.8601,-1.8611,-1.8621,-1.8699,-1.8641,-1.8639,-1.8657,-1.8651,-1.8665,-1.8665,-1.8654,-1.8713,-1.8722,-1.8763,-1.8686,-1.8864,-1.8869,-1.8874,-1.8936,-1.8948,-1.8958,0,0,0,0,0,-1.8555,-1.8618,-1.8602,-1.8612,-1.8658,-1.8701,-1.8707,-1.8693,-1.866,-1.869,-1.869,-1.8664,-1.8753,-1.8719,-1.8729,-1.8772,-1.8861,-1.8868,-1.8874,-1.8931,-1.8945,-1.8958,0,0,0,0,0,0,-1.8614,-1.8619,-1.8602,-1.867,-1.8685,-1.8692,-1.873,-1.8708,-1.8733,-1.8727,-1.8708,-1.8712,-1.8772,-1.8777,-1.874,-1.8847,-1.8802,-1.881,-1.8841,-1.8855,-1.8866,-1.8864,-1.8689,0,0,0,0,0,-1.8635,-1.867,-1.8672,-1.8732,-1.8741,-1.8734,-1.8752,-1.874,-1.8755,-1.8761,-1.8766,-1.8782,-1.8813,-1.8834,-1.8863,-1.8936,-1.8938,-1.897,-1.8981,-1.899,-1.8998,-1.9036,-1.905,-1.8898,-1.8898,-1.8898,0,0,-1.8679,-1.8686,-1.8709,-1.8744,-1.8755,-1.8791,-1.874,-1.8781,-1.8807,-1.8768,-1.8821,-1.8825,-1.8841,-1.8906,-1.8935,-1.8912,-1.904,-1.8998,-1.9005,-1.9009,-1.9044,-1.9059,-1.9072,-1.8903,-1.8902,-1.8901,0,0,-1.8777,-1.8786,-1.8837,-1.8848,-1.8864,-1.8858,-1.887,-1.888,-1.8881,-1.8934,-1.8905,-1.8936,-1.899,-1.9003,-1.9016,-1.9117,-1.9094,-1.9127,-1.9185,-1.9222,-1.9234,-1.9245,-1.9281,-1.9294,-1.9135,-1.9135,-1.9135,0,-1.883,-1.8884,-1.8866,-1.8908,-1.8924,-1.8889,-1.894,-1.8951,-1.8976,-1.8988,-1.8962,-1.9029,-1.9037,-1.9104,-1.9129,-1.9141,-1.9154,-1.9126,-1.9234,-1.9244,-1.9254,-1.9288,-1.9302,-1.9139,-1.9139,-1.9138,-1.9138,0,-1.8947,-1.8985,-1.9024,-1.9048,-1.9068,-1.9115,-1.9104,-1.9126,-1.9111,-1.9108,-1.9162,-1.9171,-1.92,-1.9215,-1.9201,-1.928,-1.9265,-1.9237,-1.9191,-1.9273,-1.9304,-1.9317,-1.9145,-1.9143,-1.9142,-1.9141,0,0,-1.9087,-1.9098,-1.9113,-1.9123,-1.9137,-1.9165,-1.921,-1.9238,-1.9258,-1.9275,-1.9312,-1.9358,-1.9331,-1.9347,-1.9334,-1.9366,-1.9445,-1.9334,-1.9334,-1.9355,-1.9532,-1.9553,-1.9569,-1.9429,-1.9431,-1.9433,-1.953,0,-1.9185,-1.9262,-1.9246,-1.9321,-1.9355,-1.932,-1.9359,-1.9371,-1.9369,-1.9398,-1.9395,-1.9428,-1.939,-1.9399,-1.943,-1.9429,-1.9481,-1.9422,-1.9463,-1.9465,-1.9461,-1.9585,-1.9609,-1.97,-1.9543,-1.9545,-1.9546,0,-1.9311,-1.9332,-1.941,-1.9417,-1.9431,-1.9466,-1.949,-1.9517,-1.953,-1.9526,-1.9543,-1.9523,-1.9566,-1.9519,-1.9578,-1.9539,-1.9554,-1.9556,-1.9559,-1.9564,-1.9511,-1.9594,-1.9729,-1.9743,-1.9566,-1.9564,-1.9563,0,-1.9404,-1.9453,-1.9506,-1.9515,-1.9525,-1.955,-1.9555,-1.9565,-1.9583,-1.9603,-1.9614,-1.964,-1.9654,-1.9674,-1.9662,-1.9628,-1.9723,-1.9675,-1.9721,-1.9722,-1.9744,-1.9743,-1.9884,-1.9753,-1.9753,-1.9752,-1.9752,0,-1.9517,-1.9566,-1.9548,-1.9581,-1.9634,-1.9615,-1.9669,-1.967,-1.9679,-1.9711,-1.9682,-1.9713,-1.9694,-1.9722,-1.9713,-1.9763,-1.977,-1.9768,-1.9765,-1.9771,-1.9771,-1.9782,-1.9775,-1.9756,-1.9755,-1.9754,-1.9754,0,-1.9631,-1.9621,-1.9676,-1.968,-1.9682,-1.9722,-1.9725,-1.9755,-1.975,-1.9791,-1.9799,-1.9791,-1.9823,-1.9812,-1.9847,-1.984,-1.9905,-1.9893,-1.99,-1.9898,-1.9945,-1.9941,-2.0099,-2.0118,-1.9973,-1.9975,-1.9976,0,-1.9704,-1.9741,-1.9748,-1.9767,-1.9775,-1.9806,-1.9823,-1.9805,-1.9824,-1.984,-1.9868,-1.9898,-1.9921,-1.9974,-1.9971,-1.9997,-1.9986,-2.004,-1.999,-1.9995,-1.9987,-1.9986,-1.9989,-2.005,-2.0052,-2.0053,-2.0054,0,-1.9835,-1.9827,-1.9853,-1.9877,-1.9898,-1.9916,-1.9932,-1.9949,-1.9931,-1.9954,-1.9986,-2.0004,-2.0039,-2.0068,-2.0091,-2.0096,-2.0073,-2.007,-2.0082,-2.0089,-2.0092,-2.0091,-1.9928,-2.0067,-2.0065,-2.0064,-2.0064,-2.0063,-1.9931,-1.9962,-1.9971,-2.0001,-2.001,-2.0025,-2.0053,-2.0051,-2.0077,-2.0104,-2.0091,-2.0128,-2.0138,-2.0167,-2.0175,-2.0203,-2.0183,-2.02,-2.0205,-2.021,-2.0216,-2.0086,-2.0207,-2.0207,-2.0207,-2.0206,-2.0206,0,-2.006,-2.0064,-2.0091,-2.0113,-2.0136,-2.011,-2.0126,-2.0147,-2.018,-2.0191,-2.0214,-2.025,-2.0278,-2.0277,-2.0303,-2.0326,-2.0315,-2.0333,-2.0332,-2.0333,-2.0233,-2.022,-2.0341,-2.0341,-2.0341,-2.0341,-2.0341,-2.0341,-2.013,-2.0181,-2.0174,-2.0229,-2.0232,-2.0268,-2.0279,-2.0292,-2.0301,-2.0343,-2.0366,-2.0364,-2.037,-2.0396,-2.042,-2.0419,-2.043,-2.0452,-2.0447,-2.0354,-2.034,-2.0328,-2.0315,-2.0454,-2.0455,-2.0545,-2.0546,-2.0546]},{"header":{"parameterUnit":"m.s-1","parameterCategory":1,"la1":30.2991,"la2":30.254,"lo1":-89.0895,"lo2":-89.0444,"dy":0.0017,"dx":0.0017,"nx":28,"ny":28,"refTime":"2024-12-05T03:00:00:Z","depth":0,"parameterNumber":3,"parameterNumberName":"V-component_of_WINDS"},"data":[0,0,0,0,0,0,0,0,0,0,0,0,0,0,0,0,0,0,0,0,0,0,0,0,0,0,0,0,0,0,0,0,0,0,0,0,0,0,0,0,0,0,0,0,0,0,0,0,0,0,0,0,0,0,0,0,0,0,-8.2058,-8.2059,0,-8.2187,-8.2189,-8.219,-8.2109,-8.2106,-8.2102,-8.2098,-8.2224,-8.223,-8.2237,0,0,0,0,0,0,0,0,0,0,0,0,0,-8.1733,-8.1739,-8.2058,-8.2059,-8.2061,-8.2187,-8.2189,-8.219,-8.211,-8.2105,-8.2101,-8.2096,-8.2221,-8.2229,-8.2238,0,0,0,0,0,0,0,0,0,0,0,0,0,-8.1869,-8.1741,-8.2057,-8.2036,-8.2035,-8.2187,-8.2189,-8.2191,-8.2111,-8.2105,-8.21,-8.2094,-8.2219,-8.2229,-8.2239,-8.2416,0,0,-8.227,-8.2275,0,0,0,0,0,0,0,0,-8.1862,-8.1881,-8.2038,-8.2038,-8.2037,-8.2126,-8.212,-8.2266,-8.2112,-8.2082,-8.2098,-8.2092,-8.2195,-8.2207,-8.2244,-8.2422,-8.2427,-8.2271,-8.2277,-8.2282,-8.2285,0,0,0,0,0,0,0,-8.1852,-8.1875,-8.2109,-8.204,-8.204,-8.2017,-8.2031,-8.2147,-8.2169,-8.2084,-8.2079,-8.2096,-8.2194,-8.2234,-8.2246,-8.2429,-8.2271,-8.228,-8.2286,-8.229,-8.2757,-8.2763,0,0,0,0,0,0,-8.1845,-8.1868,-8.2104,-8.2112,-8.1934,-8.2028,-8.2043,-8.2103,-8.2167,-8.2172,-8.21,-8.2091,-8.2219,-8.2234,-8.225,-8.2461,-8.2282,-8.2291,-8.2297,-8.2751,-8.2758,-8.2765,0,0,0,0,0,0,-8.1839,-8.1867,-8.2099,-8.1989,-8.2017,-8.204,-8.2109,-8.2109,-8.2149,-8.218,-8.2182,-8.2138,-8.2215,-8.2236,-8.2375,-8.2464,-8.2296,-8.2305,-8.2744,-8.2753,-8.2762,-8.2885,0,0,0,0,0,0,-8.183,-8.1866,-8.1935,-8.1991,-8.2023,-8.2225,-8.2114,-8.2116,-8.2168,-8.2157,-8.2215,-8.2219,-8.2212,-8.2361,-8.2386,-8.2475,-8.2313,-8.2736,-8.2748,-8.2759,-8.2873,-8.2897,-8.2918,0,0,0,0,0,-8.1819,-8.1963,-8.1939,-8.1968,-8.2111,-8.2231,-8.2248,-8.224,-8.2175,-8.2244,-8.2263,-8.2217,-8.2451,-8.2376,-8.2403,-8.2497,-8.273,-8.2744,-8.2758,-8.2863,-8.2892,-8.2917,0,0,0,0,0,0,-8.1914,-8.197,-8.1944,-8.2111,-8.2167,-8.2217,-8.2303,-8.2271,-8.2345,-8.2332,-8.2315,-8.2329,-8.2475,-8.25,-8.2415,-8.2671,-8.258,-8.26,-8.265,-8.2678,-8.2701,-8.2691,-8.2322,0,0,0,0,0,-8.1955,-8.205,-8.2093,-8.2236,-8.2266,-8.228,-8.2332,-8.2321,-8.2377,-8.2399,-8.2429,-8.2483,-8.2568,-8.2624,-8.2705,-8.2876,-8.2886,-8.2954,-8.2977,-8.2995,-8.3012,-8.3104,-8.3134,-8.2811,-8.2811,-8.2811,0,0,-8.204,-8.2082,-8.2143,-8.2257,-8.2299,-8.2395,-8.23,-8.2407,-8.2477,-8.2414,-8.2549,-8.2573,-8.2631,-8.2788,-8.2858,-8.2813,-8.3104,-8.3013,-8.3027,-8.3035,-8.3121,-8.3152,-8.3179,-8.2821,-8.2819,-8.2817,0,0,-8.2244,-8.2286,-8.241,-8.2455,-8.252,-8.2529,-8.2558,-8.2613,-8.2627,-8.2763,-8.2717,-8.2799,-8.2947,-8.2991,-8.3033,-8.3253,-8.3213,-8.3279,-8.3397,-8.3486,-8.3511,-8.3534,-8.3612,-8.364,-8.3297,-8.3297,-8.3297,0,-8.234,-8.2487,-8.2477,-8.2588,-8.2638,-8.2588,-8.2712,-8.2754,-8.2842,-8.2877,-8.2826,-8.301,-8.3046,-8.3211,-8.3265,-8.3301,-8.3333,-8.3273,-8.3509,-8.3531,-8.3552,-8.3626,-8.3655,-8.3305,-8.3304,-8.3303,-8.3302,0,-8.2601,-8.2703,-8.2795,-8.2884,-8.2945,-8.3061,-8.3067,-8.3129,-8.3112,-8.3126,-8.3263,-8.3305,-8.3392,-8.343,-8.3414,-8.3594,-8.3563,-8.3511,-8.3419,-8.3591,-8.366,-8.3688,-8.3316,-8.3313,-8.3311,-8.3309,0,0,-8.2869,-8.2951,-8.2985,-8.3024,-8.3093,-8.317,-8.3284,-8.3372,-8.3425,-8.3486,-8.358,-8.3706,-8.3658,-8.3705,-8.3693,-8.3772,-8.3943,-8.3709,-8.371,-8.3751,-8.4141,-8.418,-8.4213,-8.3917,-8.3922,-8.3926,-8.4136,0,-8.3076,-8.3278,-8.3272,-8.3458,-8.3551,-8.3505,-8.3603,-8.3654,-8.3669,-8.3748,-8.3763,-8.3853,-8.3784,-8.3812,-8.3888,-8.3906,-8.4021,-8.3891,-8.4001,-8.4005,-8.3988,-8.4249,-8.4291,-8.4487,-8.4163,-8.4168,-8.4171,0,-8.3346,-8.3419,-8.3615,-8.367,-8.3709,-8.3798,-8.3877,-8.3955,-8.4011,-8.4016,-8.407,-8.4045,-8.4157,-8.4062,-8.4215,-8.4127,-8.4172,-8.4188,-8.4195,-8.4204,-8.4098,-8.4265,-8.4549,-8.4578,-8.4213,-8.421,-8.4207,0,-8.352,-8.3668,-8.3804,-8.3839,-8.3907,-8.397,-8.4,-8.4051,-8.4105,-8.4173,-8.4207,-8.4287,-8.4331,-8.4392,-8.4389,-8.4321,-8.4544,-8.4449,-8.455,-8.455,-8.4598,-8.4595,-8.4893,-8.4629,-8.4628,-8.4628,-8.4627,0,-8.3752,-8.3874,-8.3884,-8.3968,-8.4101,-8.4093,-8.4225,-8.4248,-8.4294,-8.438,-8.4343,-8.4424,-8.4415,-8.4495,-8.4493,-8.462,-8.4639,-8.4645,-8.4643,-8.4649,-8.4648,-8.4677,-8.4663,-8.4635,-8.4634,-8.4632,-8.4631,0,-8.397,-8.3982,-8.4127,-8.418,-8.4196,-8.4292,-8.4335,-8.4413,-8.4425,-8.4534,-8.4559,-8.4577,-8.467,-8.4673,-8.4778,-8.4777,-8.4931,-8.4914,-8.4913,-8.4909,-8.501,-8.5,-8.5336,-8.5379,-8.5087,-8.509,-8.5092,0,-8.4117,-8.421,-8.4273,-8.4329,-8.4364,-8.4455,-8.4509,-8.4504,-8.4561,-8.4633,-8.4702,-8.4792,-8.4863,-8.5013,-8.5034,-8.5114,-8.5098,-8.521,-8.5109,-8.5112,-8.5098,-8.5093,-8.5101,-8.5229,-8.5233,-8.5235,-8.5237,0,-8.4377,-8.4378,-8.446,-8.4544,-8.4611,-8.4676,-8.4736,-8.4783,-8.4784,-8.4851,-8.4947,-8.5002,-8.5111,-8.52,-8.5278,-8.5306,-8.5272,-8.5269,-8.5296,-8.5303,-8.5298,-8.5301,-8.4966,-8.5261,-8.5259,-8.5257,-8.5256,-8.5255,-8.4563,-8.4643,-8.4701,-8.4792,-8.4838,-8.4895,-8.4971,-8.4994,-8.5074,-8.5164,-8.5155,-8.5261,-8.5313,-8.5415,-8.545,-8.5531,-8.5492,-8.5532,-8.5541,-8.5551,-8.5562,-8.5286,-8.5545,-8.5544,-8.5544,-8.5543,-8.5542,0,-8.482,-8.4855,-8.494,-8.5027,-8.5099,-8.5063,-8.5127,-8.5189,-8.5284,-8.5337,-8.5409,-8.5518,-8.5604,-8.5632,-8.5714,-8.5774,-8.576,-8.5795,-8.5791,-8.5797,-8.5592,-8.556,-8.5805,-8.5805,-8.5805,-8.5805,-8.5805,-8.5805,-8.4963,-8.5096,-8.5105,-8.5259,-8.5292,-8.5398,-8.5438,-8.549,-8.5532,-8.5657,-8.5729,-8.5748,-8.579,-8.5875,-8.5952,-8.5957,-8.5989,-8.6031,-8.603,-8.5838,-8.5812,-8.5787,-8.5756,-8.6038,-8.6039,-8.6228,-8.623,-8.6231]}]]